Probability
0 0 0 0 0 0 0 0 0 0 0 0 0 0 0 0 0 0 0 0 0 0 0 0 0 0 0 0 0 0 0 0 0 0 0 0 0 0 0 0 0 0 0
0 0 0 0 0 0 0 0 0 0 0 0 0 0 0 0 0 0 0 0 0 0 0 0 0 0 0 0 0 0 0 0 0 0 0 0 0 0 0 0 0 0 0
0 0 0 0 0 0 0 0 0 0 0 0 0 0 0 0 0 0 0 0 0 0 0 0 0 0 0 0 0 0 0 0 0 0 0 0 0 0 0 0 0 0 0
0 0 0 0 0 0 0 0 0 0 0 0 0 0 0 0 0 0 0 0 0 0 0 0 0 0 0 0 0 0 0 0 0 0 0 0 0 0 0 0 0 0 0
0 0 0 0 0 0 0 0 0 0 0 0 0 0 0 0 0 0 0 0 0 0 0 0 0 0 0 0 0 0 0 0 0 0 0 0 0 0 0 0 0 0 0
0 0 0 0 0 0 0 0 0 0 0 0 0 0 0 0 0 0 0 0 0 0 0 0 0 0 0 0 0 0 0 0 0 0 0 0 0 0 0 0 0 0 0
0 0 0 0 0 0 0 0 0 0 0 0 0 0 0 0 0 0 0 0 0 0 0 0 0 0 0 0 0 0 0 0 0 0 0 0 0 0 0 0 0 0 0
0 0 0 0 0 0 0 0 0 0 0 0 0 0 0 0 0 0 0 0 0 0 0 0 0 0 0 0 0 0 0 0 0 0 0 0 0 0 0 0 0 0 0
0 0 0 0 0 0 0 0 0 0 0 0 0 0 0 0 0 0 0 0 0 0 0 0 0 0 0 0 0 0 0 0 0 0 0 0 0 0 0 0 0 0 0
0 0 0 0 0 0 0 0 0 0 0 0 0 0 0 0 0 0 0 0 0 0 0 0 0 0 0 0 0 0 0 0 0 0 0 0 0 0 0 0 0 0 0
0 0 0 0 0 0 0 0 0 0 0 0 0 0 0 0 0 0 0 0 0 0 0 0 0 0 0 0 0 0 0 0 0 0 0 0 0 0 0 0 0 0 0
0 0 0 0 0 0 0 0 0 0 0 0 0 0 0 0 0 0 0 0 0 0 0 0 0 0 0 0 0 0 0 0 0 0 0 0 0 0 0 0 0 0 0
0 0 0 0 0 0 0 0 0 0 0 0 0 0 0 0 0 0 0 0 0 0 0 0 0 0 0 0 0 0 0 0 0 0 0 0 0 0 0 0 0 0 0
0 0 0 0 0 0 0 0 0 0 0 0 0 0 0 0 0 0 0 0 0 0 0 0 0 0 0 0 0 0 0 0 0 0 0 0 0 0 0 0 0 0 0
0 0 0 0 0 0 0 0 0 0 0 0 0 0 0 0 0 0 0 0 0 0 0 0 0 0 0 0 0 0 0 0 0 0 0 0 0 0 0 0 0 0 0
0 0 0 0 0 0 0 0 0 0 0 0 0 0 0 0 0 0 0 0 0 0 0 0 0 0 0 0 0 0 0 0 0 0 0 0 0 0 0 0 0 0 0
0 0 0 0 0 0 0 0 0 0 0 0 0 0 0 0 0 0 0 0 0 0 0 0 0 0 0 0 0 0 0 0 0 0 0 0 0 0 0 0 0 0 0
0 0 0 0 0 0 0 0 0 0 0 0 0 0 0 0 0 0 0 0 0 0 0 0 0 0 0 0 0 0 0 0 0 0 0 0 0 0 0 0 0 0 0
0 0 0 0 0 0 0 0 0 0 0 0 0 0 0 0 0 0 0 0 0 0 0 0 0 0 0 0 0 0 0 0 0 0 0 0 0 0 0 0 0 0 0
0 0 0 0 0 0 0 0 0 0 0 0 0 0 0 0 0 0 0 0 0 0 0 0 0 0 0 0 0 0 0 0 0 0 0 0 0 0 0 0 0 0 0
0 0 0 0 0 0 0 0 0 0 0 0 0 0 0 0 0 0 0 0 0 0 0 0 0 0 0 0 0 0 0 0 0 0 0 0 0 0 0 0 0 0 0
0 0 0 0 0 0 0 0 0 0 0 0 0 0 0 0 0 0 0 0 0 0 0 0 0 0 0 0 0 0 0 0 0 0 0 0 0 0 0 0 0 0 0
0 0 0 0 0 0 0 0 0 0 0 0 0 0 0 0 0 0 0 0 0 0 0 0 0 0 0 0 0 0 0 0 0 0 0 0 0 0 0 0 0 0 0
0 0 0 0 0 0 0 0 0 0 0 0 0 0 0 0 0 0 0 0 0 0 0 0 0 0 0 0 0 0 0 0 0 0 0 0 0 0 0 0 0 0 0
0 0 0 0 0 0 0 0 0 0 0 0 0 0 0 0 0 0 0 0 0 0 0 0 0 0 0 0 0 0 0 0 0 0 0 0 0 0 0 0 0 0 0
0 0 0 0 0 0 0 0 0 0 0 0 0 0 0 0 0 0 0 0 0 0 0 0 0 0 0 0 0 0 0 0 0 0 0 0 0 0 0 0 0 0 0
Wind_Speed
5 4 5 4 3 2 3 4 3 2 1 2 2 2 3 4 4 4 5 6 6 5 6 6 6 6 5 4 5 5 6 8 12 11 9 9 10 11 11 9 10 10 11
6 6 5 4 3 3 4 3 2 1 2 3 3 4 4 5 4 5 5 6 5 6 6 7 7 7 6 5 5 6 7 7 10 14 10 9 10 11 11 11 12 12 9
6 6 5 4 4 4 4 3 2 2 2 3 4 5 5 5 5 5 6 6 7 7 8 8 8 8 8 6 7 7 7 8 8 10 11 9 9 10 11 12 12 9 11
7 6 5 4 4 3 2 2 2 3 3 4 4 5 5 6 9 10 10 9 8 9 9 9 9 9 8 8 8 8 8 8 8 9 10 9 9 10 9 9 9 7 8
7 5 4 2 1 1 2 2 3 4 5 4 5 6 7 6 8 9 9 10 9 10 10 10 10 13 15 11 10 8 8 8 8 9 9 9 9 9 8 7 9 8 9
5 3 2 1 1 1 2 2 3 4 4 5 6 6 7 6 6 8 9 9 10 10 10 10 11 12 14 15 18 18 16 12 11 10 10 10 11 10 8 8 8 9 7
2 1 0 1 1 1 3 4 4 4 5 5 5 5 5 3 2 4 9 9 10 9 9 10 11 11 13 10 13 17 16 18 18 13 12 12 11 9 9 10 9 10 9
1 0 0 1 2 3 4 5 5 5 5 5 5 5 4 2 2 5 10 10 9 9 10 11 11 11 12 12 12 12 12 11 12 10 9 9 9 8 9 10 10 9 7
1 1 2 3 5 6 7 7 6 5 5 5 5 5 5 2 2 5 9 9 8 11 11 11 12 12 13 15 13 12 11 9 10 10 10 10 12 13 11 7 6 5 4
3 5 6 6 6 7 7 6 5 4 5 5 5 5 6 5 3 5 9 8 9 10 10 10 11 11 13 14 10 9 9 8 7 6 5 6 6 6 8 5 4 4 3
6 7 6 5 4 6 5 4 4 5 4 5 6 6 5 6 6 8 11 8 9 10 9 8 7 12 13 13 11 7 8 8 5 5 4 4 4 3 4 5 5 4 3
6 6 6 6 6 6 4 3 4 5 5 5 6 7 6 7 8 11 14 13 12 9 8 7 7 13 13 12 8 8 10 7 3 3 3 4 3 4 4 4 5 5 5
5 5 4 5 5 5 4 5 4 5 5 6 6 7 7 7 8 13 14 15 15 9 7 11 12 13 11 8 8 9 7 4 4 4 4 4 4 4 4 3 3 3 4
4 3 3 4 4 4 4 5 5 6 6 6 7 7 7 7 8 9 9 9 11 9 8 9 10 10 7 7 6 5 4 4 4 4 4 4 4 4 4 4 3 3 3
3 3 4 5 4 3 5 5 6 6 5 5 6 6 6 7 10 14 9 8 8 9 8 5 5 6 6 6 5 5 5 5 5 4 4 4 4 4 4 4 4 4 4
5 5 4 4 4 4 3 4 4 3 3 1 3 5 6 7 12 14 16 14 13 14 8 6 6 6 6 6 6 5 5 5 4 4 4 4 4 4 4 4 5 6 6
6 5 4 5 4 5 4 4 2 2 3 2 2 8 10 11 12 15 16 14 12 12 7 6 6 7 6 6 6 5 5 5 5 4 4 4 4 4 4 5 5 6 7
6 5 5 4 5 5 5 5 5 4 4 3 3 8 12 12 11 14 15 11 9 9 7 7 7 7 6 6 6 5 5 5 5 5 4 4 4 5 5 6 6 7 8
6 5 4 4 4 5 5 5 5 6 6 6 6 8 11 11 9 12 11 8 7 7 7 7 7 7 6 6 6 6 6 5 6 5 4 4 4 4 5 5 6 9 8
3 1 3 4 5 6 6 6 6 5 5 5 6 7 8 8 7 8 8 7 7 7 7 7 7 7 7 6 6 6 6 6 6 6 5 4 2 3 5 6 5 6 6
3 3 1 6 7 6 6 6 5 5 5 4 5 6 8 6 6 7 7 7 7 7 7 7 7 7 7 6 6 7 8 7 7 6 6 5 3 3 3 4 5 5 6
4 5 6 6 6 6 6 6 5 5 5 6 5 5 7 6 6 6 6 6 6 6 6 6 6 6 6 6 6 7 7 8 8 8 7 5 4 4 3 3 4 5 6
4 6 6 6 6 6 6 6 6 6 6 6 6 6 6 5 5 6 6 6 6 6 6 6 6 6 6 5 5 5 7 7 8 9 8 5 4 4 4 5 7 7 7
7 7 7 7 7 7 7 7 7 7 7 7 6 6 5 5 5 6 6 6 6 6 6 6 6 8 10 7 6 6 6 7 8 8 9 6 5 4 4 5 6 7 8
8 7 8 7 7 7 7 7 7 7 7 7 7 6 6 6 5 6 6 6 6 6 7 7 6 7 10 11 10 9 9 10 9 8 7 5 6 6 5 6 6 6 7
8 8 7 7 7 6 6 6 7 7 7 7 7 7 7 6 6 6 6 6 6 6 6 5 7 9 12 10 12 12 11 11 11 11 6 4 5 5 5 5 7 6 7
Wind_Direction
111 96 96 97 101 109 95 97 91 77 76 273 286 283 281 277 272 266 269 276 279 282 287 289 287 284 280 278 278 279 281 284 288 291 290 291 291 290 290 286 284 275 271
100 89 83 76 68 66 76 71 69 58 323 313 310 302 296 297 298 294 299 308 310 310 309 305 299 298 292 287 281 280 280 277 280 287 288 288 286 287 284 282 284 280 274
99 92 81 73 65 53 52 43 17 349 318 312 309 306 313 320 329 346 351 346 341 332 324 314 308 303 295 291 285 280 276 275 271 278 284 285 283 283 286 286 283 282 283
83 83 73 60 52 42 27 2 335 322 310 310 320 332 343 10 31 21 5 348 340 331 320 310 302 297 294 291 286 276 275 274 273 275 279 282 282 281 280 284 289 287 287
74 73 68 57 42 19 356 330 324 331 340 357 357 2 8 38 39 20 355 342 332 317 307 301 297 298 294 288 285 280 278 277 277 276 278 281 282 284 284 287 288 290 284
69 65 59 8 352 335 322 342 3 12 14 14 14 15 16 35 48 20 354 333 316 306 303 303 302 296 298 298 293 291 285 280 278 276 278 280 283 284 287 286 286 286 282
72 54 335 276 310 3 21 41 34 24 24 16 15 20 23 71 62 343 330 317 305 305 309 308 309 310 312 305 304 302 295 287 279 276 276 278 283 286 288 287 282 279 274
103 120 327 29 44 61 55 44 36 22 16 6 18 12 359 27 211 296 317 312 312 315 313 310 311 311 312 314 308 299 291 286 283 281 276 280 283 286 286 283 282 279 270
142 88 51 47 55 51 45 32 28 14 15 5 15 359 345 341 236 308 328 322 320 320 316 316 315 313 316 318 311 301 296 293 291 282 277 280 285 288 292 291 289 288 282
85 70 61 55 57 57 48 32 14 10 16 4 5 349 343 352 12 0 345 332 328 323 317 316 316 321 321 322 318 310 309 309 312 316 310 304 301 308 322 323 322 311 301
79 75 65 46 68 78 61 37 15 11 12 9 360 351 354 358 11 12 349 340 331 319 316 319 322 327 326 326 324 321 320 315 314 317 320 324 329 337 349 359 359 350 339
79 77 67 47 42 59 55 44 31 12 12 12 3 357 357 358 7 357 342 333 328 322 319 321 323 326 325 325 327 330 329 328 327 333 340 346 352 358 2 8 13 17 16
89 86 84 81 72 46 36 39 31 25 19 13 8 359 353 353 356 352 339 331 331 331 325 328 328 326 326 326 335 338 342 351 355 359 2 4 1 0 0 358 3 12 26
87 94 104 88 78 69 45 39 39 29 21 14 9 356 349 350 354 348 337 334 338 340 334 329 329 334 340 337 343 355 3 12 10 10 11 8 4 8 12 4 5 1 17
79 69 79 76 65 71 69 49 48 61 45 20 7 350 348 350 341 333 338 342 342 338 331 336 351 354 359 359 2 8 11 13 17 15 14 10 8 10 13 8 12 14 26
50 42 54 58 56 55 80 99 77 99 146 95 2 352 354 351 340 345 349 347 349 348 355 358 358 359 359 360 1 6 13 12 10 11 12 12 12 16 27 28 31 34 35
50 34 33 43 48 49 47 58 75 149 206 215 4 6 3 358 359 356 352 348 2 3 8 3 1 359 357 357 359 3 11 11 10 12 14 15 17 28 39 43 42 48 50
50 46 23 41 49 52 49 47 44 39 37 27 19 17 5 3 9 4 356 359 7 8 3 360 358 356 354 358 1 5 9 9 10 11 13 16 28 44 51 54 55 60 61
43 32 13 32 48 60 59 54 49 43 38 25 17 13 4 0 9 10 6 10 1 359 357 356 356 356 356 358 0 5 11 11 7 6 6 13 32 56 64 68 71 72 72
113 46 353 36 46 57 61 55 51 48 42 31 25 12 358 4 9 5 5 2 0 358 355 352 355 359 359 360 1 7 11 8 5 3 357 4 32 70 78 79 80 80 81
85 111 107 54 49 46 57 59 58 51 46 42 40 27 8 10 7 1 359 359 357 354 351 351 356 359 1 0 3 8 10 8 2 356 354 1 26 64 87 99 100 97 99
21 57 57 61 65 49 53 61 60 55 48 47 48 44 27 19 9 2 358 355 353 350 349 350 354 357 359 2 3 7 9 6 357 352 354 3 22 43 58 79 96 101 100
41 56 59 57 66 71 59 56 51 49 47 47 48 44 34 20 8 2 358 354 352 352 352 355 357 359 359 358 1 11 8 356 344 343 348 360 20 34 43 55 66 74 79
51 53 56 53 54 55 54 53 50 47 49 48 47 48 42 28 14 6 3 358 356 355 357 358 359 359 2 7 6 12 6 348 340 338 344 360 25 42 48 56 67 77 78
50 52 58 54 49 53 54 53 51 48 46 45 44 43 43 36 27 17 9 6 3 2 4 5 2 2 2 12 14 5 351 347 351 346 344 6 30 40 47 53 59 67 80
51 53 59 62 55 50 51 52 52 50 46 44 44 42 41 37 31 24 16 10 7 5 7 6 10 18 10 5 3 358 353 353 353 352 351 21 35 34 39 52 65 69 78